Location: Fort Worth, Tx
(32.7431°N, 97.3695°W)
Time: 09:31:49
(UTC-04:00)

A-11 Canister half - Pass Details

Date: 21 August 2024
Orbit: 1524 x 1684 km, 47.3° (Epoch: 13 September)

Event Time Altitude Azimuth Distance (km) Brightness Sun altitude
Rises 23:32:48 0° 257° (WSW) 4,847 12.1 -28.3°
Reaches altitude 10° 23:36:04 10° 263° (W) 3,882 11.6 -28.9°
Maximum altitude 23:45:40 49° 336° (NNW) 2,061 9.9 -30.4°
Drops below altitude 10° 23:55:27 10° 50° (NE) 3,950 11.1 -32.0°
Sets 23:58:50 0° 56° (NE) 4,938 11.6 -32.5°
